[[{"header":{"parameterUnit":"m.s-1","parameterCategory":1,"la1":30.2991,"la2":30.254,"lo1":-89.0895,"lo2":-89.0444,"dy":0.0017,"dx":0.0017,"nx":28,"ny":28,"refTime":"2025-12-28T09:00:00:Z","depth":0,"parameterNumber":2,"parameterNumberName":"U-component_of_WINDS"},"data":[0,0,0,0,0,0,0,0,0,0,0,0,0,0,0,0,0,0,0,0,0,0,0,0,0,0,0,0,0,0,0,0,0,0,0,0,0,0,0,0,0,0,0,0,0,0,0,0,0,0,0,0,0,0,0,0,0,0,0.1297,0.1297,0,0.1303,0.1303,0.1303,0.1278,0.1278,0.1277,0.1276,0.1283,0.1284,0.1285,0,0,0,0,0,0,0,0,0,0,0,0,0,0.1264,0.1265,0.1297,0.1297,0.1297,0.1303,0.1303,0.1303,0.1279,0.1278,0.1277,0.1276,0.1283,0.1284,0.1285,0,0,0,0,0,0,0,0,0,0,0,0,0,0.1275,0.1265,0.1297,0.1286,0.1285,0.1303,0.1303,0.1303,0.1279,0.1278,0.1277,0.1276,0.1283,0.1284,0.1285,0.1316,0,0,0.1289,0.129,0,0,0,0,0,0,0,0,0.1275,0.1277,0.1287,0.1286,0.1285,0.1289,0.1294,0.1307,0.1279,0.1281,0.1276,0.1275,0.1286,0.1287,0.1291,0.1316,0.1316,0.129,0.129,0.1291,0.1291,0,0,0,0,0,0,0,0.1274,0.1276,0.13,0.1287,0.1286,0.128,0.1281,0.1297,0.129,0.1281,0.1279,0.128,0.1286,0.129,0.1291,0.1316,0.1289,0.1291,0.1291,0.1292,0.1366,0.1367,0,0,0,0,0,0,0.1275,0.1276,0.1299,0.13,0.1277,0.1282,0.1282,0.1289,0.129,0.1289,0.1281,0.1279,0.1288,0.1289,0.1291,0.1326,0.1291,0.1292,0.1293,0.1365,0.1366,0.1368,0,0,0,0,0,0,0.1274,0.1277,0.1299,0.1287,0.129,0.1283,0.1291,0.129,0.1294,0.129,0.1288,0.1286,0.1287,0.1289,0.1309,0.1326,0.1293,0.1294,0.1364,0.1365,0.1367,0.1398,0,0,0,0,0,0,0.1273,0.1277,0.1288,0.1288,0.129,0.1318,0.1292,0.1291,0.1296,0.1293,0.1294,0.1294,0.1286,0.1308,0.1311,0.1328,0.1295,0.1362,0.1364,0.1366,0.1395,0.14,0.1405,0,0,0,0,0,0.1272,0.1297,0.1289,0.1292,0.1304,0.1319,0.132,0.1311,0.1297,0.1309,0.1306,0.1293,0.1324,0.131,0.1313,0.1331,0.1361,0.1364,0.1366,0.1393,0.1399,0.1405,0,0,0,0,0,0,0.13,0.1297,0.1288,0.1313,0.1316,0.1314,0.1329,0.1318,0.1325,0.1323,0.1311,0.1312,0.1334,0.1334,0.1319,0.136,0.134,0.1343,0.1359,0.1365,0.137,0.137,0.1296,0,0,0,0,0,0.1309,0.1321,0.1317,0.134,0.1342,0.1335,0.1341,0.1334,0.1337,0.1338,0.1337,0.134,0.135,0.1358,0.1367,0.1395,0.1395,0.1408,0.1413,0.1417,0.142,0.1435,0.1441,0.1376,0.1376,0.1376,0,0,0.1328,0.1328,0.1336,0.1345,0.1347,0.136,0.1336,0.1351,0.136,0.134,0.1359,0.1359,0.1362,0.1386,0.1397,0.1387,0.1438,0.142,0.1423,0.1425,0.1438,0.1445,0.145,0.1378,0.1378,0.1378,0,0,0.137,0.137,0.1389,0.1391,0.1394,0.1389,0.1393,0.1393,0.1391,0.141,0.1396,0.1406,0.1424,0.1427,0.1431,0.1472,0.1461,0.1476,0.1501,0.1516,0.1521,0.1525,0.1541,0.1546,0.1479,0.1479,0.1479,0,0.1393,0.1411,0.14,0.1416,0.142,0.1402,0.1421,0.1424,0.1429,0.1433,0.1422,0.1444,0.1444,0.1469,0.1479,0.1483,0.1488,0.1476,0.1521,0.1525,0.1529,0.1544,0.155,0.1481,0.1481,0.148,0.148,0,0.144,0.1453,0.1468,0.1474,0.148,0.1497,0.1489,0.1496,0.1488,0.1485,0.1504,0.1504,0.1513,0.1518,0.1511,0.1542,0.1536,0.1523,0.1503,0.1537,0.1551,0.1556,0.1483,0.1483,0.1482,0.1482,0,0,0.15,0.1499,0.1505,0.1507,0.1508,0.1518,0.1534,0.1543,0.155,0.1554,0.1567,0.1582,0.157,0.1575,0.1567,0.158,0.1613,0.1565,0.1565,0.1574,0.1648,0.1658,0.1665,0.1605,0.1606,0.1607,0.1648,0,0.1541,0.1569,0.1559,0.1588,0.16,0.1582,0.1596,0.1599,0.1595,0.1605,0.1601,0.1612,0.1595,0.1598,0.1609,0.1606,0.1628,0.1603,0.1618,0.1619,0.1619,0.1672,0.1683,0.1722,0.1653,0.1654,0.1655,0,0.1593,0.1599,0.1629,0.1628,0.1632,0.1645,0.1652,0.1661,0.1663,0.166,0.1664,0.1654,0.167,0.1649,0.1671,0.1654,0.166,0.1659,0.166,0.1662,0.164,0.1676,0.1734,0.1741,0.1663,0.1662,0.1661,0,0.1635,0.165,0.167,0.1672,0.1671,0.1681,0.1681,0.1682,0.1687,0.1693,0.1697,0.1704,0.1709,0.1715,0.1707,0.1692,0.173,0.1709,0.1728,0.1729,0.1738,0.1738,0.1799,0.174,0.174,0.174,0.174,0,0.1682,0.1701,0.1688,0.1701,0.1721,0.171,0.1731,0.1729,0.173,0.1741,0.1726,0.1738,0.1726,0.1736,0.1729,0.1749,0.175,0.1749,0.1747,0.1751,0.1751,0.1755,0.1752,0.1741,0.1741,0.1741,0.174,0,0.1732,0.1725,0.1745,0.1743,0.1742,0.1758,0.1755,0.1767,0.1762,0.1777,0.178,0.1773,0.1784,0.1776,0.1787,0.1782,0.1808,0.1802,0.1808,0.1806,0.1827,0.1825,0.1893,0.1902,0.1837,0.1837,0.1838,0,0.1763,0.1778,0.1776,0.1783,0.1784,0.1795,0.18,0.1789,0.1796,0.1799,0.181,0.1819,0.1827,0.1845,0.1841,0.185,0.1844,0.1867,0.1845,0.1849,0.1845,0.1845,0.1847,0.1872,0.1873,0.1874,0.1874,0,0.182,0.1815,0.1824,0.1831,0.1838,0.1843,0.1847,0.1853,0.1842,0.185,0.1861,0.1867,0.1878,0.1888,0.1894,0.1894,0.1883,0.1881,0.1886,0.189,0.1893,0.1893,0.1821,0.188,0.1879,0.1879,0.1878,0.1878,0.1862,0.1874,0.1875,0.1885,0.1886,0.189,0.1901,0.1897,0.1906,0.1914,0.1907,0.192,0.1922,0.193,0.1931,0.1941,0.1932,0.1939,0.1941,0.1944,0.1947,0.1891,0.1943,0.1942,0.1942,0.1942,0.1942,0,0.1918,0.1917,0.1926,0.1932,0.194,0.1928,0.1931,0.1939,0.1951,0.1953,0.196,0.1973,0.1983,0.1979,0.1987,0.1996,0.1991,0.1999,0.1999,0.1999,0.1954,0.1949,0.2003,0.2003,0.2003,0.2003,0.2003,0.2003,0.1948,0.1967,0.1963,0.1983,0.1982,0.1995,0.1998,0.2002,0.2004,0.2019,0.2026,0.2024,0.2024,0.2032,0.204,0.2039,0.2043,0.2053,0.205,0.2008,0.2002,0.1997,0.1992,0.2054,0.2054,0.2094,0.2094,0.2094]},{"header":{"parameterUnit":"m.s-1","parameterCategory":1,"la1":30.2991,"la2":30.254,"lo1":-89.0895,"lo2":-89.0444,"dy":0.0017,"dx":0.0017,"nx":28,"ny":28,"refTime":"2025-12-28T09:00:00:Z","depth":0,"parameterNumber":3,"parameterNumberName":"V-component_of_WINDS"},"data":[0,0,0,0,0,0,0,0,0,0,0,0,0,0,0,0,0,0,0,0,0,0,0,0,0,0,0,0,0,0,0,0,0,0,0,0,0,0,0,0,0,0,0,0,0,0,0,0,0,0,0,0,0,0,0,0,0,0,2.1444,2.1445,0,2.1494,2.1494,2.1495,2.1484,2.1483,2.1482,2.1481,2.1533,2.1536,2.1538,0,0,0,0,0,0,0,0,0,0,0,0,0,2.1341,2.1343,2.1444,2.1445,2.1446,2.1494,2.1494,2.1495,2.1484,2.1483,2.1482,2.1481,2.1533,2.1535,2.1538,0,0,0,0,0,0,0,0,0,0,0,0,0,2.1388,2.1344,2.1444,2.1446,2.1447,2.1493,2.1494,2.1495,2.1484,2.1483,2.1482,2.148,2.1532,2.1535,2.1538,2.1587,0,0,2.1549,2.155,0,0,0,0,0,0,0,0,2.1385,2.1392,2.1445,2.1446,2.1447,2.1481,2.1477,2.1526,2.1485,2.147,2.1481,2.148,2.1517,2.1522,2.1534,2.159,2.1592,2.1549,2.1551,2.1552,2.1553,0,0,0,0,0,0,0,2.1382,2.139,2.1464,2.1446,2.1447,2.1444,2.1449,2.1486,2.1501,2.1471,2.1471,2.1476,2.1517,2.1531,2.1535,2.1593,2.1549,2.1552,2.1554,2.1555,2.1689,2.1691,0,0,0,0,0,0,2.1378,2.1387,2.1462,2.1465,2.1412,2.1447,2.1453,2.1472,2.1501,2.1504,2.1478,2.1476,2.1526,2.1531,2.1537,2.1596,2.1552,2.1556,2.1558,2.1688,2.169,2.1691,0,0,0,0,0,0,2.1376,2.1385,2.146,2.1426,2.1435,2.1451,2.1472,2.1473,2.1487,2.1505,2.1508,2.1489,2.1525,2.1532,2.1574,2.1597,2.1557,2.156,2.1686,2.1689,2.1691,2.1714,0,0,0,0,0,0,2.1373,2.1384,2.1403,2.1426,2.1437,2.1497,2.1473,2.1475,2.1492,2.149,2.1516,2.1519,2.1524,2.1569,2.1578,2.1601,2.1563,2.1684,2.1687,2.169,2.1711,2.1717,2.1721,0,0,0,0,0,2.1369,2.1408,2.1404,2.1413,2.1461,2.1498,2.1505,2.1509,2.1494,2.1513,2.1525,2.1518,2.1593,2.1574,2.1583,2.1608,2.1683,2.1686,2.169,2.1709,2.1716,2.1721,0,0,0,0,0,0,2.1388,2.1411,2.1407,2.1454,2.1474,2.1496,2.1521,2.1516,2.1541,2.1539,2.1544,2.1549,2.1592,2.1604,2.1582,2.1656,2.1636,2.1641,2.1647,2.1654,2.1659,2.1656,2.1566,0,0,0,0,0,2.1397,2.1425,2.1444,2.1484,2.1494,2.1506,2.1522,2.1524,2.1545,2.1554,2.1568,2.1589,2.1617,2.1636,2.1663,2.1712,2.1718,2.1734,2.1739,2.1743,2.1748,2.1775,2.1782,2.1703,2.1703,2.1703,0,0,2.1418,2.1434,2.1451,2.1489,2.1504,2.1533,2.1513,2.1545,2.1567,2.1559,2.1599,2.1611,2.1634,2.168,2.1701,2.1691,2.1771,2.1748,2.1751,2.1754,2.1779,2.1787,2.1793,2.1705,2.1705,2.1704,0,0,2.147,2.1484,2.1519,2.1535,2.1558,2.1565,2.1573,2.1596,2.1603,2.1643,2.1638,2.1663,2.1712,2.1729,2.1744,2.18,2.1795,2.1808,2.1836,2.1862,2.1868,2.1873,2.1894,2.1901,2.1813,2.1813,2.1813,0,2.1492,2.1536,2.1538,2.157,2.1586,2.1579,2.1614,2.1629,2.1661,2.1672,2.166,2.172,2.1736,2.1785,2.1799,2.1811,2.182,2.1806,2.1867,2.1872,2.1877,2.1897,2.1904,2.1815,2.1814,2.1814,2.1814,0,2.1562,2.1592,2.1617,2.1647,2.1666,2.1699,2.1707,2.1726,2.1725,2.1733,2.1774,2.1792,2.1822,2.1833,2.1833,2.1882,2.1876,2.1865,2.1845,2.1886,2.1905,2.1912,2.1817,2.1816,2.1816,2.1815,0,0,2.163,2.1658,2.1668,2.168,2.1705,2.1728,2.1761,2.1789,2.1805,2.1826,2.1854,2.1894,2.1884,2.1901,2.1903,2.1925,2.1969,2.1912,2.1913,2.1922,2.2024,2.2032,2.2041,2.1965,2.1966,2.1967,2.2022,0,2.1684,2.1742,2.1744,2.1796,2.1824,2.1816,2.1844,2.1862,2.187,2.1895,2.1903,2.1932,2.1916,2.1926,2.1948,2.1959,2.1989,2.1955,2.1991,2.1992,2.1987,2.205,2.206,2.2111,2.2029,2.203,2.2031,0,2.1757,2.1779,2.1834,2.1853,2.1865,2.189,2.1916,2.1939,2.1959,2.1963,2.1981,2.1979,2.2012,2.1989,2.2035,2.2012,2.2026,2.2034,2.2036,2.204,2.2015,2.2058,2.2127,2.2135,2.2042,2.2042,2.2041,0,2.1801,2.1845,2.1883,2.1894,2.1917,2.1935,2.1946,2.1964,2.1981,2.2003,2.2014,2.204,2.2055,2.2075,2.208,2.2063,2.2126,2.2103,2.213,2.213,2.2146,2.2145,2.2219,2.2153,2.2153,2.2153,2.2153,0,2.1863,2.1897,2.1903,2.1927,2.1965,2.1966,2.2003,2.2013,2.2028,2.2054,2.2048,2.2072,2.2076,2.2101,2.2105,2.2143,2.2149,2.2154,2.2155,2.2155,2.2155,2.2166,2.2163,2.2155,2.2154,2.2154,2.2154,0,2.192,2.1925,2.1967,2.1984,2.1989,2.2017,2.2032,2.2054,2.206,2.2093,2.21,2.211,2.2139,2.2145,2.218,2.2182,2.2227,2.2224,2.222,2.222,2.2247,2.2245,2.2333,2.2345,2.2269,2.227,2.2271,0,2.196,2.1986,2.2006,2.2022,2.2033,2.2059,2.2075,2.2077,2.2094,2.2118,2.2138,2.2165,2.2188,2.2234,2.2245,2.2271,2.2269,2.2298,2.2273,2.2272,2.227,2.2269,2.2272,2.2303,2.2304,2.2305,2.2305,0,2.203,2.2031,2.2055,2.2079,2.2098,2.2118,2.2136,2.215,2.2154,2.2173,2.2202,2.2219,2.2254,2.2282,2.2307,2.2318,2.2313,2.2312,2.232,2.2322,2.2319,2.2322,2.2234,2.2311,2.2311,2.231,2.231,2.231,2.2081,2.2103,2.212,2.2146,2.216,2.2176,2.2198,2.2206,2.223,2.2258,2.2257,2.2288,2.2306,2.234,2.2352,2.2377,2.2368,2.2379,2.2382,2.2385,2.2388,2.2314,2.2381,2.2381,2.2381,2.2381,2.2381,0,2.2152,2.2161,2.2185,2.221,2.2231,2.2222,2.2241,2.2259,2.2287,2.2303,2.2325,2.2357,2.2384,2.2395,2.2421,2.2439,2.2437,2.2446,2.2445,2.2448,2.2394,2.2385,2.2447,2.2447,2.2447,2.2447,2.2447,2.2447,2.2191,2.2228,2.2231,2.2274,2.2284,2.2314,2.2326,2.2341,2.2354,2.239,2.2412,2.2419,2.2433,2.246,2.2484,2.2486,2.2497,2.2507,2.2508,2.2458,2.2452,2.2446,2.2437,2.2509,2.2509,2.256,2.2561,2.2561]}]]